Regional Weather Roundup
Issued by NWS

Home | Current Version | Previous Version | Graphics & Text | Print | Product List | Glossary On
Versions: 1 2 3 4 5 6 7 8 9 10 11 12 13 14 15 16 17 18 19 20 21 22 23 24 25 26 27 28 29 30 31 32 33 34 35 36 37 38 39 40 41 42 43 44 45 46 47 48 49 50
718
ASUS43 KOAX 250010
RWRNE

WEATHER ROUNDUP FOR NEBRASKA
NATIONAL WEATHER SERVICE OMAHA NE
600 PM CST FRI FEB 24 2017

NOTES: SATELLITE DATA IS BEING USED TO AUGMENT CLOUD COVER ABOVE
       12000 FEET.
       "FAIR" INDICATES FEW OR NO CLOUDS BELOW 12,000 FEET WITH NO
       SIGNIFICANT WEATHER AND/OR OBSTRUCTIONS TO VISIBILITY.

  * THESE STATIONS DO NOT REPORT WEATHER SUCH AS RAIN...SNOW OR FOG.

NEZ001>004-019>022-054>056-250100-
NEBRASKA PANHANDLE

CITY           SKY/WX    TMP DP  RH WIND       PRES   REMARKS
SCOTTSBLUFF    CLOUDY    24  16  71 CALM      30.05R
6HR MIN TEMP:  22; 6HR MAX TEMP:  26; 6HR PCP: TRACE;

ALLIANCE       CLOUDY    18  13  80 NW5       30.03S WCI  11
6HR MIN TEMP:  18; 6HR MAX TEMP:  22;

CHADRON        CLOUDY    19  13  77 CALM      30.08S
6HR MIN TEMP:  19; 6HR MAX TEMP:  22; 6HR PCP: TRACE;

KIMBALL        CLOUDY    22  17  79 CALM      30.01R
SIDNEY         CLOUDY    21  13  71 NW7       30.03R WCI  12
6HR MIN TEMP:  21; 6HR MAX TEMP:  24; 6HR PCP: TRACE;

$$

NEZ057>060-069>072-079>082-250100-
SOUTHWEST NEBRASKA

CITY           SKY/WX    TMP DP  RH WIND       PRES   REMARKS
NORTH PLATTE   MOCLDY    23  11  60 NW10      30.08R WCI  12
6HR MIN TEMP:  22; 6HR MAX TEMP:  25;

IMPERIAL       CLOUDY    23  15  71 N9        30.07R WCI  13
6HR MIN TEMP:  23; 6HR MAX TEMP:  27;

LEXINGTON      CLOUDY    23  15  69 N17       30.08R WCI  10
MCCOOK         PTCLDY    25  16  68 N12       30.08R WCI  14
6HR MIN TEMP:  25; 6HR MAX TEMP:  28;

OGALLALA       CLOUDY    25  17  71 NW6       30.07R WCI  18
$$

NEZ005>010-023>029-035>040-094-250100-
NORTH CENTRAL NEBRASKA

CITY           SKY/WX    TMP DP  RH WIND       PRES   REMARKS
VALENTINE      CLOUDY    19  11  70 W9        30.09R WCI   8
6HR MIN TEMP:  18; 6HR MAX TEMP:  24;

AINSWORTH      CLOUDY    22  15  75 NW13      30.08R WCI  10
BROKEN BOW     PTCLDY    21  15  78 N17       30.06R WCI   7
6HR MIN TEMP:  20; 6HR MAX TEMP:  24;

O`NEILL        CLOUDY    25  18  74 NW17      30.05R WCI  11
ORD            CLOUDY    23  13  65 NW21      30.05R WCI   8
6HR MIN TEMP:  21; 6HR MAX TEMP:  24;

THEDFORD       CLOUDY    20  13  75 NW7       30.09R WCI  11
$$

NEZ041-046>049-061>064-073>077-083>087-250100-
SOUTH CENTRAL NEBRASKA

CITY           SKY/WX    TMP DP  RH WIND       PRES   REMARKS
GRAND ISLAND   CLEAR     23  16  74 N24G33    30.05R WCI   7
6HR MIN TEMP:  21; 6HR MAX TEMP:  25; 6HR PCP: TRACE;

AURORA         CLEAR     24  17  77 N18G25    30.04R WCI  10
HASTINGS       PTCLDY    24  16  71 N23G30    30.06R WCI   9
6HR MIN TEMP:  22; 6HR MAX TEMP:  26; 6HR PCP: TRACE;

HEBRON         CLOUDY    25  18  72 N15G23    30.05R WCI  13
HOLDREGE       MOCLDY    23  15  72 N14       30.07R WCI  10
KEARNEY *      CLEAR     23  12  63 N17G25    30.06R WCI   9
YORK           PTCLDY    25  19  80 N18G24    30.02R WCI  11
$$

NEZ011>018-030>034-042>045-250100-
NORTHEAST NEBRASKA

CITY           SKY/WX    TMP DP  RH WIND       PRES   REMARKS
NORFOLK        PTCLDY    25  15  66 NW17G24   29.99R WCI  12
6HR MIN TEMP:  21; 6HR MAX TEMP:  25; 6HR PCP: TRACE;

ALBION         CLOUDY    25  17  69 NW21G30   30.02R WCI  11
BLAIR          CLOUDY    25  17  72 NW15      29.95R WCI  13
FREMONT        PTCLDY    25  19  77 NW14      29.99R WCI  13
TEKAMAH        CLOUDY    24  15  68 NW15      29.97R WCI  11
6HR MIN TEMP:  24; 6HR MAX TEMP:  26;

WAYNE          CLOUDY    25  17  73 NW16      29.97R WCI  12
$$

NEZ050>053-065>068-078-088>093-250100-
SOUTHEAST NEBRASKA

CITY           SKY/WX    TMP DP  RH WIND       PRES   REMARKS
LINCOLN        FLURRIES  27  18  69 NW18      30.02R WCI  14
6HR MIN TEMP:  25; 6HR MAX TEMP:  27; 6HR PCP: TRACE;

OMAHA EPPLEY   CLOUDY    26  16  65 NW20      29.96R WCI  12
6HR MIN TEMP:  25; 6HR MAX TEMP:  26; 6HR PCP:  0.01;

BEATRICE       CLOUDY    26  19  73 N23G31    30.01R WCI  11
FALLS CITY     LGT SNOW  26  22  84 NW18      29.95R FOG     WCI  13
6HR MIN TEMP:  25; 6HR MAX TEMP:  29; 6HR PCP: TRACE;

NEBRASKA CITY  LGT SNOW  24  21  87 N18G24    29.96R WCI  10
PLATTSMOUTH    CLOUDY    26  16  66 NW17G23   29.95R WCI  12
$$

NEZ044-045-051>053-067-250100-
OMAHA AREA

CITY           SKY/WX    TMP DP  RH WIND       PRES   REMARKS
OMAHA EPPLEY   CLOUDY    26  16  65 NW20      29.96R WCI  12
6HR MIN TEMP:  25; 6HR MAX TEMP:  26; 6HR PCP:  0.01;

BLAIR          CLOUDY    25  17  72 NW15      29.95R WCI  13
FREMONT        PTCLDY    25  19  77 NW14      29.99R WCI  13
MILLARD        CLOUDY    28  19  66 NW15G22   29.98R WCI  17
OFFUTT AFB     CLOUDY    26  15  64 NW17      29.95R WCI  13
PLATTSMOUTH    CLOUDY    26  16  66 NW17G23   29.95R WCI  12
WAHOO          FAIR      26  18  72 NW13G23   29.99R WCI  14
$$




USA.gov is the U.S. government's official web portal to all federal, state and local government web resources and services.